Regional Weather Roundup
Issued by NWS Wilmington, NC

Home | Current Version | Previous Version | Text Only | Print | Product List | Glossary On
Versions: 1 2 3 4 5 6 7 8 9 10 11 12 13 14 15 16 17 18 19 20 21 22 23 24 25 26 27 28 29 30 31 32 33 34 35 36 37 38 39 40 41 42 43 44 45 46 47 48 49 50
000
ASUS42 KILM 282213
RWRILM
RWRILM
REGIONAL HOURLY WEATHER ROUNDUP
NATIONAL WEATHER SERVICE WILMINGTON NC
600 PM EDT TUE JUL 28 2015

NOTE: "FAIR" INDICATES FEW OR NO CLOUDS BELOW 12,000 FEET WITH NO
SIGNIFICANT WEATHER AND/OR OBSTRUCTIONS TO VISIBILITY.

...............WFO WILMINGTON COUNTY WARNING AREA...............

......COASTAL NC AND SC COUNTIES......

CITY           SKY/WX    TMP DP  RH WIND       PRES   REMARKS
WILMINGTON     SUNNY     84  69  60 E7        29.97S
N MYRTLE BEACH SUNNY     85  72  65 E13       29.97R HX  91
MYRTLE BEACH   SUNNY     86  72  62 SE12      29.98S HX  92

......INLAND NC AND SC COUNTIES.......

CITY           SKY/WX    TMP DP  RH WIND       PRES   REMARKS
LUMBERTON      SUNNY     92  66  42 S7        29.94S HX  94
ELIZABETHTOWN  SUNNY     89  68  48 SE5       29.96S HX  93
WHITEVILLE     SUNNY     89  70  53 SE6       29.95S HX  93
FLORENCE       PTSUNNY   92  66  42 E8        29.93S HX  94
DARLINGTON     NOT AVBL

....................REST OF NORTH CAROLINA......................

.........EASTERN NC.........

CITY           SKY/WX    TMP DP  RH WIND       PRES   REMARKS
CAPE HATTERAS  SUNNY     85  70  60 SE8       29.99S
JACKSONVILLE   SUNNY     88  70  55 SE8       29.97S HX  92
MOREHEAD CITY  SUNNY     84  71  65 E8        29.97F
KENANSVILLE    MOSUNNY   86  67  53 CALM      29.98R
NEW BERN       SUNNY     87  68  52 SE10      29.98F HX  90
ELIZABETH CITY CLOUDY    84  70  62 SE9       29.97F

.........CENTRAL NC.........

CITY           SKY/WX    TMP DP  RH WIND       PRES   REMARKS
RALEIGH DURHAM LGT RAIN  86  71  60 SE3       29.97F HX  91
ROCKY MOUNT    CLOUDY    86  69  56 CALM      29.97S HX  90
ROANOKE RAPIDS NOT AVBL
FAYETTEVILLE   SUNNY     90  68  48 SE7       29.95R HX  94
HOFFMAN        PTSUNNY   92  65  40 SE9       29.94S HX  94

.........WESTERN NC.........

CITY           SKY/WX    TMP DP  RH WIND       PRES   REMARKS
CHARLOTTE      PTSUNNY   77  72  84 S8        29.98S
GREENSBORO     PTSUNNY   84  71  65 S12       29.97S
HICKORY        NOT AVBL
BOONE          NOT AVBL
ASHEVILLE      NOT AVBL

.....................REST OF SOUTH CAROLINA.....................

.........EASTERN SC.........

CITY           SKY/WX    TMP DP  RH WIND       PRES   REMARKS
CHARLESTON     MOSUNNY   87  69  54 SE9       29.94S HX  91
BEAUFORT MCAS  MOSUNNY   89  73  59 E9        29.94S HX  97
HILTON HEAD    PTSUNNY   86  75  70 E6        29.95S HX  95

.........CENTRAL SC.........

CITY           SKY/WX    TMP DP  RH WIND       PRES   REMARKS
COLUMBIA       PTSUNNY   89  68  49 CALM      29.93F HX  93
ORANGEBURG     PTSUNNY   92  66  42 VRB6      29.92F HX  94
SUMTER SHAW    PTSUNNY   89  71  55 W8        29.92F HX  94

.........WESTERN SC.........

CITY           SKY/WX    TMP DP  RH WIND       PRES   REMARKS
GREENVILLE     NOT AVBL
ROCK HILL      TSTM      75  73  93 SW8       30.00F
ANDERSON       MOSUNNY   88  73  61 N8        29.95F HX  95
CLEMSON        NOT AVBL
GREENWOOD      MOSUNNY   94  68  42 NW3       29.94F HX  98


...................COASTAL AND OFFSHORE REPORTS..................

................LOCAL PIERS AND NC RESERVE................


STATION/POSITION TIME  SKY/WX   TEMP    WIND        PRES    VSBY
                                AIR SEA DIR/SP/G
                 (UTC)          (F)     (DEG/KT/KT) (MB)    (MI)
JOHNY MRCER PIER 2100            82 86   80/ 11/ 12 1014.6F
NC RESRV MASNBRO NOT AVBL
OCEAN CREST PIER NOT AVBL
SPRINGMAID  PIER 2100            83 86   80/ 10/ 12 1014.7F


................COASTAL AND OFFSHORE BUOYS................


STATION/POSITION TIME  SKY/WX   TEMP    WIND        PRES    VSBY
                                AIR SEA DIR/SP/G
                 (UTC)          (F)     (DEG/KT/KT) (MB)    (MI)
DIMNDSHOAL 41025 NOT AVBL
CAPE LOOKOUT     2200            81      70/ 10/ 11 1014.8F
ONSLOW BAY 41036 NOT AVBL
5 WRITEBCH 41038 NOT AVBL
MASONBORO  41110 2119               81                N/A
WVE H/P(F/S)=  4/ 6 WND WVE H/P(F/S)=  3/ 6

WILM HARBR 41108 2111               82                N/A
WVE H/P(F/S)=  4/ 7 WND WVE H/P(F/S)=  3/ 7

27WRITEBCH 41037 2100            80 82   80/ 10/ 12   N/A
FRYING PAN 41013 2150            84 84   70/ 14/ 16 1014.3F
WVE H/P(F/S)=  5/ 7 WND WVE H/P(F/S)=  3/ 6 SWL H/P/D(F/S/D)=  3/180/ 7

SUNST NRSH 41024 2108            83     120/ 14/ 17 1014.1
CAPRS NRSH 41029 NOT AVBL
EDISTO     41004 2150            84 85   50/ 12/ 14 1013.2F
WVE H/P(F/S)=  3/ 5 WND WVE H/P(F/S)=  3/ 5 SWL H/P/D(F/S/D)=  2/ 6



..........OFFSHORE BUOYS BEYOND 100 NM OFFSHORE...........
.....IN A TRIANGLE---HAT TO BERMUDA TO BAHAMAS TO HAT.....


STATION/POSITION TIME  SKY/WX   TEMP    WIND        PRES    VSBY
                                AIR SEA DIR/SP/G
                 (UTC)          (F)     (DEG/KT/KT) (MB)    (MI)
150E HAT   41001 2100            81 84   70/  4/  8 1015.5F
W BERMUDA  41048 2150            80 81  260/ 16/ 19 1015.6F
WVE H/P(F/S)=  4/ 6 WND WVE H/P(F/S)=  3/ 6 SWL H/P/D(F/S/D)=  2/ 70/10

ATLANTIC S 41049 2150            84 86  250/  8/  8 1019.1R
WVE H/P(F/S)=  3/10 SWL H/P/D(F/S/D)=  3/ 40/10

E BAHAMAS  41046 2150            84 86  130/  4/  6 1018.2S
WVE H/P(F/S)=  3/ 7 WND WVE H/P(F/S)=  2/ 4 SWL H/P/D(F/S/D)=  3/110/ 7

NE BAHAMAS 41047 2150            84 85  230/ 10/ 12 1017.4F
WVE H/P(F/S)=  3/ 6 WND WVE H/P(F/S)=  2/ 5 SWL H/P/D(F/S/D)=  2/160/ 6

120E CANVRL41010 2120            85 84  190/ 12/ 14 1014.4F

END


USA.gov is the U.S. government's official web portal to all federal, state and local government web resources and services.